Location: Newark
(49.3808°N, 3.1844°E)
Time: 01:14:05
(UTC+00:00)

SR - Visible Passes

Search period start: 18 November 2019 00:00
Search period end: 28 November 2019 00:00
Orbit: 574 x 882 km, 66.7° (Epoch: 17 November)

Date Brightness Start Highest point End Pass type
(mag) Time Alt. Az. Time Alt. Az. Time Alt. Az.
18 Nov ? 18:07:08 10° NW 18:10:39 16° NNW 18:13:51 11° NNE visible
18 Nov ? 19:51:46 10° NNW 19:53:15 14° N 19:53:15 14° N visible
19 Nov ? 17:16:08 10° WNW 17:20:14 20° NNW 17:24:27 10° NNE visible
19 Nov ? 19:01:35 10° NNW 19:04:41 14° N 19:04:52 14° N visible
20 Nov ? 18:10:59 10° NW 18:14:09 15° N 18:16:28 12° NNE visible
20 Nov ? 19:54:40 10° NNW 19:55:52 14° NNW 19:55:52 14° NNW visible
21 Nov ? 17:20:04 10° NW 17:23:39 16° NNW 17:27:19 10° NNE visible
21 Nov ? 19:04:48 10° NNW 19:07:29 15° N 19:07:29 15° N visible
22 Nov ? 16:29:04 10° WNW 16:33:14 20° NNW 16:37:32 10° NNE visible
22 Nov ? 18:14:35 10° NNW 18:17:41 14° N 18:19:07 13° NNE visible
22 Nov ? 19:57:26 10° NNW 19:58:31 14° NNW 19:58:31 14° NNW visible
23 Nov ? 17:23:56 10° NW 17:27:09 15° N 17:30:24 10° NNE visible
23 Nov ? 19:07:44 10° NNW 19:10:09 16° N 19:10:09 16° N visible
24 Nov ? 16:33:00 10° NW 16:36:39 17° NNW 16:40:23 10° NNE visible
24 Nov ? 18:17:49 10° NNW 18:21:12 15° N 18:21:47 15° NNE visible
24 Nov ? 20:00:08 10° NNW 20:01:11 14° NNW 20:01:11 14° NNW visible
25 Nov ? 17:27:34 10° NNW 17:30:40 14° N 17:33:26 11° NNE visible
25 Nov ? 19:10:31 10° NNW 19:12:51 18° N 19:12:51 18° N visible
26 Nov ? 16:36:53 10° NW 16:40:08 15° N 16:43:26 10° NNE visible
26 Nov ? 18:20:48 10° NNW 18:24:31 17° NNE 18:24:31 17° NNE visible
26 Nov ? 20:02:49 10° NNW 20:03:55 15° NNW 20:03:55 15° NNW visible
27 Nov ? 17:30:52 10° NNW 17:34:12 15° N 17:36:12 13° NNE visible
27 Nov ? 19:13:13 10° NNW 19:15:37 20° N 19:15:37 20° N visible
